Flag for Canada Weather past 2 weeks in Glace Bay, Nova Scotia, Canada

Now
70 °F

Broken clouds.


Feels Like: 70 °F
Forecast: N/A
Wind: 12 mph from South

Location: Sydney

Current Time: Jul 31, 2014 at 8:47:21 PM

Latest Report: Jul 31, 2014 at 8:00 PM


Visibility: 15 mi

Pressure: 30.22 "Hg

Humidity: 88%

Dew point: 66 °F

Location of Glace BayLocation

Historic Weather in Glace Bay — Graph

°F

Glace Bay temperature yesterday

Maximum temperature yesterday: 81 °F (at 2:00 PM)
Minimum temperature yesterday: 66 °F (at 2:00 AM)
Average temperature yesterday: 72 °F

Past Weeks' High & Low Weather Summary

 TemperatureHumidityPressure
High86 °F (Jul 23, 2:00 PM)100% (Jul 18, 12:00 AM)30.31 "Hg (Jul 18, 12:00 AM)
Low52 °F (Jul 20, 3:00 AM)31% (Jul 19, 4:00 PM)29.74 "Hg (Jul 25, 3:00 AM)
Average69 °F78%30.01 "Hg
* Reported Jul 16 7:00 PM — Jul 31 7:00 PM, Glace Bay, Weather by CustomWeather, © 2014

Note: Actual official high and low records may vary slightly from our data, if they occured in-between our weather recording intervals... More about our weather records

Advertising

Glace Bay weather history for previous 24 hours

 ConditionsComfort  
Time TempWeatherWind HumidityBarometerVisibility
7:00 PM
Jul 31
72 °FPartly sunny.12 mph88%30.22 "Hg15 mi
6:00 PM73 °FPartly sunny.12 mph83%30.21 "Hg15 mi
5:00 PM73 °FMostly cloudy.16 mph83%30.20 "Hg15 mi
4:00 PM75 °FOvercast.17 mph83%30.19 "Hg15 mi
3:00 PM75 °FOvercast.16 mph83%30.19 "Hg15 mi
2:51 PMN/APartly sunny.17 mphN/AN/A15 mi
2:00 PM73 °FOvercast.15 mph89%30.19 "Hg15 mi
1:00 PM75 °FPartly sunny.16 mph83%30.18 "Hg15 mi
12:04 PMN/ASprinkles.14 mphN/AN/A15 mi
12:00 PM77 °FPartly sunny.15 mph79%30.19 "Hg15 mi
11:00 AM73 °FMostly cloudy.14 mph89%30.19 "Hg15 mi
10:00 AM72 °FLow clouds.12 mph94%30.18 "Hg10 mi
9:00 AM72 °FSprinkles. Fog.9 mph94%30.19 "Hg4 mi
8:00 AM70 °FSprinkles. Fog.12 mph100%30.18 "Hg1 mi
7:00 AM68 °FFog.10 mph100%30.17 "Hg6 mi
6:00 AM70 °FFog.9 mph94%30.16 "Hg4 mi
5:00 AM68 °FFog.7 mph100%30.15 "Hg4 mi
4:00 AM68 °FFog.7 mph100%30.14 "Hg4 mi
3:00 AM68 °FFog.7 mph100%30.15 "Hg2 mi
2:00 AM68 °FFog.10 mph100%30.16 "Hg2 mi
1:00 AM68 °FFog.5 mph100%30.15 "Hg3 mi
12:00 AM70 °FFog.8 mph94%30.16 "Hg4 mi
11:00 PM
Jul 30
68 °FFog.6 mph94%30.16 "Hg5 mi
10:00 PM68 °FFog.9 mph100%30.17 "Hg2 mi
9:00 PM68 °FFog.13 mph94%30.16 "Hg5 mi
8:00 PM70 °FPartly sunny.5 mph94%30.15 "Hg10 mi
Weather by CustomWeather, © 2014

See weather overviewHow to use our weather pages